Weather History for Easton, MD

Change the Weather History Date:

Thursday, August 7, 2014

  Actual Average Record
Temperature  
Mean Temperature 74 °F -  
Max Temperature 82 °F 86 °F 95 °F (1977)
Min Temperature 66 °F 66 °F 54 °F (1964)
Cooling Degree Days 9    
Growing Degree Days 24 (Base 50)    
Moisture  
Dew Point 65 °F    
Average Humidity 82    
Maximum Humidity 100    
Minimum Humidity 39    
Precipitation  
Precipitation 0.00 in - - ()
Sea Level Pressure  
Sea Level Pressure 30.00 in    
Wind  
Wind Speed 1 mph (NNE)    
Max Wind Speed 9 mph    
Max Gust Speed -    
Visibility 9 miles    
Events      
Averages and records for this station are not official NWS values.
T = Trace of Precipitation, MM = Missing Value Source: NWS Daily Summary

Daily Weather History Graph

Daily Weather History Graph

Search for Another Location

Airport:

Trip Planner

Search our weather history database for the weather conditions in past years. The results will help you decide how hot, cold, wet, or windy it might be!

Date:

Astronomy

Aug. 07, 2014 Rise Set
Actual Time 6:10 AM EDT 8:08 PM EDT
Civil Twilight 5:41 AM EDT 8:37 PM EDT
Nautical Twilight 5:06 AM EDT 9:13 PM EDT
Astronomical Twilight 4:27 AM EDT 9:51 PM EDT
Moon 5:22 PM EDT (8/7) 2:39 AM EDT (8/7)
Length of Visible Light 14h 56m
Length of Day
13h 57m
Waxing Gibbous, 86% of the Moon is Illuminated
Aug 7
Waxing Gibbous
Aug 10
Full
Aug 17
Last Quarter
Aug 25
New
Sep 2
First Quarter

Hourly Weather History & Observations

Time (EDT) Temp. Heat Index Dew Point Humidity Pressure Visibility Wind Dir Wind Speed Gust Speed Precip Events Conditions
12:08 AM 70.5 °F - 67.5 °F 90% 29.98 in 10.0 mi Calm Calm - N/A   Clear
12:28 AM 70.2 °F - 67.8 °F 92% 29.98 in 10.0 mi Calm Calm - N/A   Clear
12:48 AM 70.2 °F - 67.6 °F 92% 29.98 in 10.0 mi Calm Calm - N/A   Scattered Clouds
1:08 AM 69.8 °F - 69.1 °F 98% 29.97 in 10.0 mi Calm Calm - N/A   Scattered Clouds
1:28 AM 69.1 °F - 69.1 °F 100% 29.98 in 10.0 mi Calm Calm - N/A   Clear
1:48 AM 69.4 °F - 69.4 °F 100% 29.98 in 10.0 mi Calm Calm - N/A   Clear
2:08 AM 69.4 °F - 69.4 °F 100% 29.98 in 10.0 mi Calm Calm - N/A   Clear
2:28 AM 68.5 °F - 68.5 °F 100% 29.97 in 10.0 mi Calm Calm - N/A   Clear
2:48 AM 69.1 °F - 69.1 °F 100% 29.97 in 10.0 mi Calm Calm - N/A   Clear
3:08 AM 68.2 °F - 68.2 °F 100% 29.96 in 10.0 mi Calm Calm - N/A   Clear
3:28 AM 67.1 °F - 67.1 °F 100% 29.96 in 7.0 mi Calm Calm - N/A   Clear
3:48 AM 67.1 °F - 67.1 °F 100% 29.96 in 7.0 mi Calm Calm - N/A   Clear
4:08 AM 66.7 °F - 66.7 °F 100% 29.97 in 7.0 mi Calm Calm - N/A   Clear
4:28 AM 67.1 °F - 67.1 °F 100% 29.97 in 10.0 mi Calm Calm - N/A   Clear
4:48 AM 67.1 °F - 67.1 °F 100% 29.96 in 7.0 mi Calm Calm - N/A   Clear
5:08 AM 66.4 °F - 66.4 °F 100% 29.96 in 7.0 mi Calm Calm - N/A   Clear
5:28 AM 66.4 °F - 66.4 °F 100% 29.97 in 7.0 mi Calm Calm - N/A   Clear
5:48 AM 66.2 °F - 66.2 °F 100% 29.98 in 7.0 mi Calm Calm - N/A   Clear
5:50 AM 66.2 °F - 66.2 °F 100% 29.98 in 7.0 mi Calm Calm - N/A   Scattered Clouds
6:08 AM 66.0 °F - 66.0 °F 100% 29.98 in 7.0 mi Calm Calm - N/A   Clear
6:25 AM 66.2 °F - 66.2 °F 100% 29.98 in 7.0 mi Calm Calm - N/A   Clear
6:50 AM 68.0 °F - 68.0 °F 100% 29.99 in 7.0 mi Calm Calm - N/A   Partly Cloudy
7:50 AM 71.6 °F - 68.0 °F 88% 30.00 in 10.0 mi NE 5.8 mph - N/A   Partly Cloudy
8:50 AM 73.4 °F - 59.0 °F 61% 30.01 in 10.0 mi NE 5.8 mph - N/A   Partly Cloudy
9:55 AM 77.0 °F - 57.2 °F 50% 30.02 in 10.0 mi NE 9.2 mph - N/A   Partly Cloudy
10:50 AM 78.8 °F - 57.2 °F 47% 30.03 in 10.0 mi NE 9.2 mph - N/A   Partly Cloudy
11:50 AM 80.6 °F 81.1 °F 59.0 °F 48% 30.04 in 10.0 mi NE 3.5 mph - N/A   Partly Cloudy
1:00 PM 82.4 °F 82.5 °F 59.0 °F 45% 30.03 in 10.0 mi North 8.1 mph - N/A   Partly Cloudy
1:50 PM 82.4 °F 82.5 °F 59.0 °F 45% 30.03 in 10.0 mi North 6.9 mph - N/A   Partly Cloudy
2:50 PM 82.4 °F 82.5 °F 59.0 °F 45% 30.03 in 10.0 mi North 8.1 mph - N/A   Partly Cloudy
3:55 PM 82.4 °F 81.7 °F 55.4 °F 39% 30.02 in 10.0 mi NNW 5.8 mph - N/A   Partly Cloudy
4:55 PM 82.4 °F 82.0 °F 57.2 °F 42% 30.02 in 10.0 mi North 3.5 mph - N/A   Clear
5:47 PM 80.6 °F 81.1 °F 59.0 °F 48% 30.02 in 10.0 mi Calm Calm - N/A   Clear
6:50 PM 80.6 °F 81.8 °F 62.6 °F 54% 30.02 in 10.0 mi Calm Calm - N/A   Clear
7:48 PM 75.2 °F - 64.4 °F 69% 30.03 in 10.0 mi Calm Calm - N/A   Clear
8:45 PM 73.4 °F - 64.4 °F 73% 30.04 in 10.0 mi Calm Calm - N/A   Clear
10:50 PM 68.9 °F - 65.3 °F 88% 30.06 in 10.0 mi Calm Calm - N/A   Clear
11:10 PM 68.4 °F - 64.9 °F 89% 30.06 in 10.0 mi Calm Calm - N/A   Clear
11:30 PM 67.6 °F - 66.4 °F 96% 30.07 in 10.0 mi Calm Calm - N/A   Clear
11:50 PM 68.4 °F - 65.7 °F 91% 30.08 in 10.0 mi Calm Calm - N/A   Clear